Regional Weather Roundup
Issued by NWS

Home | Current Version | Previous Version | Text Only | Print | Product List | Glossary On
Versions: 1 2 3 4 5 6 7 8 9 10 11 12 13 14 15 16 17 18 19 20 21 22 23 24 25 26 27 28 29 30 31 32 33 34 35 36 37 38 39 40 41 42 43 44 45 46 47 48 49 50
000
ASUS45 KCYS 060610
RWRWY

WYOMING REGIONAL WEATHER ROUNDUP
NATIONAL WEATHER SERVICE CHEYENNE WY
1100 PM MST THU MAR 05 2015

NOTE:  "FAIR" INDICATES FEW OR NO CLOUDS BELOW 12,000 FEET
WITH NO SIGNIFICANT WEATHER AND/OR OBSTRUCTIONS TO VISIBILITY.

WYZ001-060700-
YELLOWSTONE NATIONAL PARK

CITY           SKY/WX    TMP DP  RH WIND       PRES   REMARKS
LK YELLOWSTONE   N/A     11   4  73 CALM      30.35S
6HR MIN TEMP:  10; 6HR MAX TEMP:  29;

W YELLOWSTONE  NOT AVBL

$$
WYZ002>013-054>058-071-098>099-060700-
NORTHERN WYOMING

CITY           SKY/WX    TMP DP  RH WIND       PRES   REMARKS
JACKSON        FAIR      19  12  73 NW7       30.36R WCI  10
CODY           FAIR      39  10  30 W17G25    30.18S WCI  30
GREYBULL       FAIR      26  17  68 CALM      30.23R
6HR MIN TEMP:  26; 6HR MAX TEMP:  39;

WORLAND        FAIR      26  18  71 SW3       30.22S
6HR MIN TEMP:  25; 6HR MAX TEMP:  41;

SHERIDAN       FAIR      31  17  56 CALM      30.15S
6HR MIN TEMP:  27; 6HR MAX TEMP:  36;

BUFFALO        FAIR      32  13  45 W6        30.15F WCI  26
6HR MIN TEMP:  28; 6HR MAX TEMP:  39;

GILLETTE       FAIR      32  17  54 SW7       30.13F WCI  26
6HR MIN TEMP:  30; 6HR MAX TEMP:  40;

HULETT         FAIR      34  19  55 SW9       30.13F WCI  26
NEWCASTLE      FAIR      25  16  68 CALM      30.18S

$$
WYZ014>020-022>026-101>103-060700-
CENTRAL WYOMING

CITY           SKY/WX    TMP DP  RH WIND       PRES   REMARKS
BIG PINEY      FAIR      24  14  65 N10       30.35R WCI  14
6HR MIN TEMP:  21; 6HR MAX TEMP:  38;

PINEDALE       FAIR      12   7  79 NW8       30.36S WCI   1
DUBOIS         FAIR      23   9  54 NW21      30.27F WCI   8
LANDER         FAIR      18  11  74 NW3       30.22S
6HR MIN TEMP:  16; 6HR MAX TEMP:  25;

RIVERTON       FAIR      14   7  73 NW7       30.24R WCI   4
6HR MIN TEMP:  14; 6HR MAX TEMP:  25;

CASPER         CLOUDY    30  20  66 W10       30.23R WCI  21
6HR MIN TEMP:  27; 6HR MAX TEMP:  31;

DOUGLAS        CLOUDY    17  13  84 CALM      30.22R
6HR MIN TEMP:  16; 6HR MAX TEMP:  34;


$$
WYZ021-027>030-104>119-060700-
SOUTHERN WYOMING

CITY           SKY/WX    TMP DP  RH WIND       PRES   REMARKS
EVANSTON       FAIR      24  13  62 SW9       30.40S WCI  14
6HR MIN TEMP:  23; 6HR MAX TEMP:  34;

FORT BRIDGER   FAIR      30  15  53 W12       30.41S WCI  20
ROCK SPRINGS   FAIR      27  16  63 SW13      30.34S WCI  16
6HR MIN TEMP:  27; 6HR MAX TEMP:  32;

DIXON          FAIR      17  12  82 E3        30.40S
RAWLINS        FAIR      27  15  61 W21G30    30.26F WCI  13
6HR MIN TEMP:  27; 6HR MAX TEMP:  31;

SARATOGA       CLOUDY    23  14  68 SE6       30.32F WCI  16
LARAMIE        FAIR      24  10  55 W7        30.25S WCI  16
6HR MIN TEMP:  19; 6HR MAX TEMP:  31;

CHEYENNE       FAIR      31  13  47 W8        30.22F WCI  23
6HR MIN TEMP:  30; 6HR MAX TEMP:  37;

TORRINGTON     FAIR      29  20  69 W5        30.22S WCI  24
6HR MIN TEMP:  28; 6HR MAX TEMP:  42;

PINE BLUFFS    FAIR      32  18  55 W10       30.24S WCI  24

$$



USA.gov is the U.S. government's official web portal to all federal, state and local government web resources and services.